Apalachicola Bay - St. George Island Weather Center

Moon Phase Calendar



Online Cameras

 


      

Current Conditions in Apalachicola
7/3/2022 7:33:50 AM

75°F
Feels Like 77
Clear
Humidity
100%
Pressure
30.06"
Wind
4.6 mph (NE)
Dew Point
75°F
UV Index
1/10 (Low)
Visibility
6 mi

Hourly Forecast

Date & Time Sun, Jul 3
7:00 AM
Sun, Jul 3
8:00 AM
Sun, Jul 3
9:00 AM
Sun, Jul 3
10:00 AM
Sun, Jul 3
11:00 AM
Sun, Jul 3
12:00 PM
Sun, Jul 3
1:00 PM
Sun, Jul 3
2:00 PM
Sun, Jul 3
3:00 PM
Sun, Jul 3
4:00 PM
Sun, Jul 3
5:00 PM
Sun, Jul 3
6:00 PM
Sun, Jul 3
7:00 PM
Sun, Jul 3
8:00 PM
Sun, Jul 3
9:00 PM
Sun, Jul 3
10:00 PM
Sun, Jul 3
11:00 PM
Mon, Jul 4
12:00 AM
Mon, Jul 4
1:00 AM
Mon, Jul 4
2:00 AM
Mon, Jul 4
3:00 AM
Mon, Jul 4
4:00 AM
Mon, Jul 4
5:00 AM
Mon, Jul 4
6:00 AM
Mon, Jul 4
7:00 AM
Mon, Jul 4
8:00 AM
Mon, Jul 4
9:00 AM
Mon, Jul 4
10:00 AM
Mon, Jul 4
11:00 AM
Mon, Jul 4
12:00 PM
Mon, Jul 4
1:00 PM
Mon, Jul 4
2:00 PM
Mon, Jul 4
3:00 PM
Mon, Jul 4
4:00 PM
Mon, Jul 4
5:00 PM
Mon, Jul 4
6:00 PM
Mon, Jul 4
7:00 PM
Mon, Jul 4
8:00 PM
Mon, Jul 4
9:00 PM
Mon, Jul 4
10:00 PM
Mon, Jul 4
11:00 PM
Tue, Jul 5
12:00 AM
Tue, Jul 5
1:00 AM
Tue, Jul 5
2:00 AM
Tue, Jul 5
3:00 AM
Tue, Jul 5
4:00 AM
Tue, Jul 5
5:00 AM
Tue, Jul 5
6:00 AM
Condition
Rain

Clear

Clear

Rain

Rain

Clouds

Clouds

Clouds

Clouds

Clouds

Clouds

Clouds

Clouds

Clouds

Clouds

Clouds

Clouds

Clouds

Rain

Rain

Rain

Clouds

Rain

Rain

Rain

Rain

Rain

Rain

Rain

Rain

Rain

Clouds

Clouds

Clouds

Rain

Rain

Rain

Rain

Rain

Rain

Rain

Rain

Rain

Rain

Rain

Rain

Clouds

Clouds
Temperature 76°F75°F77°F78°F78°F80°F81°F81°F81°F83°F85°F86°F86°F84°F82°F81°F81°F81°F80°F79°F78°F79°F78°F78°F78°F79°F81°F84°F86°F87°F86°F88°F89°F89°F88°F87°F86°F82°F79°F78°F79°F78°F79°F79°F78°F79°F79°F79°F
Feels Like 78°F77°F78°F79°F80°F80°F85°F85°F86°F88°F90°F92°F91°F90°F87°F86°F85°F85°F84°F79°F80°F80°F80°F80°F79°F79°F87°F91°F93°F93°F92°F94°F95°F95°F95°F94°F92°F87°F79°F80°F80°F80°F80°F79°F80°F79°F79°F79°F
Cloudiness 5%0%10%26%46%65%84%87%100%100%100%100%100%92%97%58%58%59%59%60%98%67%54%45%41%44%58%65%71%68%70%74%100%89%85%86%83%82%56%71%77%70%70%74%30%26%25%22%
Visibility 6 mi6 mi4 mi6 mi6 mi6 mi6 mi6 mi6 mi6 mi6 mi6 mi6 mi6 mi6 mi6 mi6 mi6 mi6 mi6 mi6 mi6 mi6 mi6 mi6 mi6 mi6 mi6 mi6 mi6 mi6 mi6 mi6 mi6 mi6 mi6 mi5 mi6 mi4 mi6 mi6 mi6 mi6 mi6 mi6 mi6 mi6 mi6 mi
Precipitation 55%75%84%92%96%76%76%72%11%7%0%0%0%4%23%30%27%27%42%46%33%37%49%60%66%67%62%70%85%89%89%89%46%27%27%28%31%44%62%58%58%58%62%62%55%55%51%51%
Humidity 96%100%95%91%88%82%76%75%73%69%63%62%62%67%73%74%75%76%77%80%82%82%82%83%84%83%77%68%62%62%64%59%57%57%58%60%63%76%83%83%82%82%81%81%82%79%78%78%
Dew Point 75°F75°F75°F75°F74°F74°F73°F72°F72°F71°F71°F71°F71°F72°F72°F72°F72°F72°F72°F73°F73°F73°F73°F72°F73°F73°F74°F73°F72°F72°F72°F71°F71°F71°F71°F72°F72°F74°F73°F73°F72°F72°F72°F72°F72°F72°F72°F72°F
Pressure 30.06"30.06"30.06"30.06"30.09"30.09"30.09"30.09"30.06"30.06"30.03"30.03"30.03"30.03"30.03"30.06"30.06"30.06"30.09"30.06"30.03"30.03"30.03"30.06"30.06"30.09"30.12"30.12"30.12"30.12"30.12"30.09"30.06"30.06"30.03"30.03"30.03"30.03"30.06"30.06"30.06"30.09"30.09"30.06"30.06"30.03"30.03"30.03"
Wind Speed 2.3 mph3.6 mph4.4 mph5.7 mph6.3 mph4.7 mph4.7 mph5 mph5.3 mph6.3 mph8.1 mph8.8 mph9.4 mph8 mph7.1 mph4.9 mph4.5 mph2.8 mph3.1 mph3.7 mph3.7 mph3.2 mph2.6 mph2.3 mph3.9 mph5.2 mph6 mph4.7 mph0.9 mph5.4 mph8 mph8.4 mph8.8 mph9 mph8.7 mph8.2 mph8.5 mph7.8 mph4.9 mph2.6 mph3.6 mph1.5 mph1.8 mph0.3 mph1.4 mph1.2 mph1.4 mph1.2 mph
Wind
Direction
210°
SSW
246°
WSW
248°
WSW
262°
W
265°
W
257°
WSW
238°
WSW
222°
SW
222°
SW
220°
SW
223°
SW
231°
SW
240°
WSW
244°
WSW
248°
WSW
258°
WSW
262°
W
244°
WSW
290°
WNW
307°
NW
277°
W
266°
W
266°
W
292°
WNW
313°
NW
325°
NW
346°
NNW
359°
N
347°
NNW
192°
SSW
200°
SSW
208°
SSW
212°
SSW
213°
SSW
216°
SW
223°
SW
233°
SW
255°
WSW
267°
W
293°
WNW
288°
WNW
317°
NW
304°
NW
286°
WNW
121°
ESE
192°
SSW
221°
SW
267°
W

Daily Forecast

Date High Low Precip. Humidity
Today
Jul 3

Rain
86 °F
75 °F
96%
76%
Monday
Jul 4

Rain
89 °F
78 °F
89%
64%
Tuesday
Jul 5

Rain
88 °F
79 °F
62%
59%
Wednesday
Jul 6

Clear
90 °F
79 °F
11%
56%
Thursday
Jul 7

Clouds
90 °F
80 °F
7%
58%
Friday
Jul 8

Rain
88 °F
77 °F
99%
65%
Saturday
Jul 9

Rain
86 °F
78 °F
100%
65%
Sunday
Jul 10

Rain
87 °F
80 °F
58%
59%
Monday
Jul 11

Rain
88 °F
80 °F
92%
63%
Tuesday
Jul 12

Clouds
89 °F
80 °F
4%
58%
Wednesday
Jul 13

Clouds
91 °F
80 °F
13%
55%
Thursday
Jul 14

Rain
93 °F
80 °F
99%
52%
Friday
Jul 15

Rain
89 °F
79 °F
100%
60%
Saturday
Jul 16

Rain
89 °F
82 °F
96%
71%
Sunday
Jul 17

Rain
89 °F
79 °F
100%
59%
Monday
Jul 18

Rain
89 °F
80 °F
100%
60%

Temperature 8-14 Day Outlook



Precipitation 8-14 Day Outlook




Quick Links
Apalachicola Bay - St. George Island News
Apalachicola Bay - St. George Island Photos
Apalachicola Bay - St. George Island Videos




About Us
Contact Us
Site Map
Search Site
Advertise With Us
   
Apalachicola.USGulf.info
THE APALACHICOLA BAY - ST. GEORGE ISLAND WEBSITE

Copyright 2022, Coastal Town
Privacy    |    Legal